Погода Тарко-Сале

Погода Тарко-Сале : погода сейчас, прогноз погоды и архив. Всё, что Вы хотите узнать о погоде Тарко-Сале!

Хотите узнать прогноз погоды Тарко-Сале? Тогда Вам сюда: Погода Тарко-Сале

Поиск расширенной информации на нашем сайте:

Полезная информация:

Другие новости

Новости СМИ2

Главная страница сайта

Новости сайта

03.07.2017

Напоминаем, что на нашем специализированном сайте Метеоцентр.Азия вы можете получить высокодетализированные автоматические прогнозы погоды по пунктам России, СНГ и мира в авиационном формате (включающие направление и скорость ветра, видимость, явления погоды, количество и форму облачности, нижнюю и верхнюю границу облачности).

Рекомендуем:

Погода Тарко-Сале - сегодня

Время (UTC), дата Ветер
(°,м/с) 
Видим.   Явления Облачность Т
(°С)
Тd
(°С)
f(%) Тe
(°С)
Pmin
(гПа)
dP
(гПа)
Po
(мм)
O2
(г/м3)
Тmin Tmax R s Состояние
почвы
21 18.05.19 060 (СВ) 10 км  слаб. дождь  10/8 120 м средняя 
[Sc|As op]
+2.2 +1.7 96 +1  999.2  -2.4  747  298           
00 19.05.19 060 (СВ) 4000 м  слаб. дождь  10/8 180 м средняя 
[Sc|As op]
+1.6 +1.4 99 997.3  -1.9  746  298           
03 19.05.19 060 (СВ) 4000 м  в посл. час дождь  10/8 100 м средняя 
[Frnb|As trans]
+1.8 +1.8 100 996  -1.3  745  298  +1.6    мокрый или
старый снег
50-90% 
06 19.05.19 080 (В) 4000 м  слаб. морось{дождь}  10/10 100 м 
[St]
+3.9 +3.9 100 +3  995.8  -0.1  745  295           
09 19.05.19 090 (В) 10 км  {морось}  10/10 100 м 
[St]
+5.1 +4.8 98 +5  996.5  0.7  745  294           
12 19.05.19 060 (СВ) 2000 м  дымка{морось}  10/10 60 м 
[St]
+4.5 +4.5 100 +5  997.3  0.7  746  295           
15 19.05.19 170 (Ю) 1000 м  дымка{дождь, туман}  10/6 330 м средняя 
[Sc|As op]
+4 +4 100 +5  997.6  0.3  746  296    +5.2  0.4     
18 19.05.19 тихо ()   4000 м  дымка{дождь, туман}  10/8 300 м средняя 
[Sc|As op]
+2.6 +2.6 100 +3  997.5  -0.1  746  297           
21 19.05.19 210 (ЮЗ) 4000 м  дымка  10/8 800 м средняя 
[Sc|As op]
+2.5 +2.5 100 +3  997.4  -0.1  746  297           
00 20.05.19 200 (Ю) 10 км    9/9 450 м 
[Sc]
+2.6 +2.3 98 +3  997.5  0.1  746  297           
03 20.05.19 230 (ЮЗ) 10 км    10/10 360 м 
[Sc]
+3.9 +0.9 81 +3  998.1  0.6  746  296  +2.3      мокрый или
старый снег
10-40% 
06 20.05.19 140 (ЮВ) 10 км    10/6 480 м средняя 
[Sc|As op]
+5.9 +1.3 72 +7  998.4  0.3  746  294           
09 20.05.19 230 (ЮЗ) 10 км    4/0 верхняя 
[Ci fib]
+9.1 +0.8 56 +10  998.6  0.3  747  291           
12 20.05.19 340 (С) 10 км    3/0 верхняя 
[Ci fib]
+9.3 +0.6 54 +9  999.4  0.8  747  291           
15 20.05.19 330 (СЗ) 10 км    3/0 верхняя 
[Ci fib]
+6.3 +1.9 73 +6  999.4  747  294    +9.7       
18 20.05.19 330 (СЗ) 10 км    ясно 
+1.9 +1.6 98 +3  999.4  747  299           
21 20.05.19 310 (СЗ) 4000 м  дымка  10/10 100 м 
[St]
+2.1 +2.1 100 +1  998.6  -0.8  747  298           
00 21.05.19 310 (СЗ) 4000 м  дымка  10/10 100 м 
[St]
+0.8 +0.8 100 998.3  -0.4  746  300           
03 21.05.19 330 (СЗ) 4000 м  слаб. ливневой снег [диам. гололёда 1 мм]  10/8 210 м кучево-дожд., средняя 
[Cb cap|As op]
-1.1 -1.6 96 -4  998.7  0.5  747  302  -1.1    0.4    влажная 
06 21.05.19 310 (СЗ) 10 км  {ливн. осадки} [диам. гололёда 0 мм]  3/3 300 м верхняя 
[Sc diur, vesp|Ci fib]
+0.5 -3.9 72 -2  999.4  0.7  747  301  -2.6         
09 21.05.19 340 (С) 5{11}  10 км    10/8 420 м средняя 
[Sc|Ac As]
+0.1 -4.2 73 -3  1000.4  748  302           
12 21.05.19 330 (СЗ) 10 км    10/5 400 м средняя 
[Sc|Ac As]
-0.3 -3.4 80 -3  1001.6  1.1  749  302           
15 21.05.19 320 (СЗ) 5-12{13}  4000 м  слаб. снег  10/6 420 м средняя 
[Sc|As op]
-1.4 -4.1 82 -5  1001.8  0.2  749  304    +1.4  0.0     
18 21.05.19 310 (СЗ) 4{13}  4000 м  слаб. снег  10/8 360 м средняя 
[Sc|As op]
-3.1 -4.9 87 -6  1001.4  -0.4  749  306           
21 21.05.19 320 (СЗ) 4{12}  4000 м  слаб. снег  10/0 средняя 
[As op]
-3.8 -5.8 86 -7  1001.3  -0.1  749  306           
Время (UTC), дата Ветер
(°,м/с) 
Видим.   Явления Облачность Т
(°С)
Тd
(°С)
f(%) Тe
(°С)
Pmin
(гПа)
dP
(гПа)
Po
(мм)
O2
(г/м3)
Тmin Tmax R s Состояние
почвы

Для получения пояснительной информации подведите курсор к названию столбца.

ПОГОДА Тарко-Сале - архив

Всё, что Вы хотите узнать о погоде Тарко-Сале - удобно и подробно!

Выберите нужную дату (начиная с 1 января 2018* года) и нажмите кнопку "Найти".
Будут отображены архивные сводки погоды по пункту Тарко-Сале, начиная с указанной даты.


Отображать данные в формате CSV (для использования в таблицах Excel)


Внимание! Наш архив погоды предназначен исключительно для личного некоммерческого использования в познавательных целях. Если Вам необходимы официальные справки о состоянии погоды (для производственных, юридических, коммерческих и т.п. целей), обращайтесь в органы Росгидромета.

*Примечание: данная дата относится к архиву по метеостанциям СССР (Россия, СНГ, Балтия).
Архив по метеостанциям Зарубежной Европы и Азии (кроме Китая) хранится 10 дней, по другим регионам земного шара (Китай, Африка, Америка, Австралия, Океания) - 1 день.

Тарко-Сале - район местоположения метеостанции


Название, широта, долгота, высота метеостанции:
Тарко-Сале 64.9°ш. 77.8°д. 27 м над ур. моря [Российская Федерация]

Дополнительная информация

В oтличие oт бoльшинства пoгoдных сайтoв мы публикуем пoдрoбную метеoинфoрмацию в детальнoм прoфессиoнальнoм фoрмате.

Характеристики температуры и влажнoсти вoздуха измеряются на высoте 2 м в тени вдали oт зданий и деревьев.
Скoрoсть ветра измеряется на высoте 10 м (на урoвне рoста челoвека скoрoсть ветра ниже в 1.5-2 раза). Если метеoстанция нахoдится в гoрoде или в лесу, тo скoрoсть ветра занижена на 2-4 м/с пo сравнению с oткрытым местoм. Скoрoсть ветра над акватoриями крупных рек и oзёр, а также на вершинах хoлмoв на 2-5 м/с выше, чем в oбычных услoвиях.
Атмoсфернoе давление в разных тoчках местнoсти мoжет значительнo oтличаться oт давления на метеoстанции, в зависимoсти oт услoвий рельефа (при пoдъёме на 10 м давление пoнижается примернo на 1 мм рт.ст.).